Regional Weather Roundup
Issued by NWS

Home | Current Version | Previous Version | Graphics & Text | Print | Product List | Glossary On
Versions: 1 2 3 4 5 6 7 8 9 10 11 12 13 14 15 16 17 18 19 20 21 22 23 24 25 26 27 28 29 30 31 32 33 34 35 36 37 38 39 40 41 42 43 44 45 46 47 48 49 50
000
ASUS43 KMKX 271100
RWRWI

WISCONSIN REGIONAL WEATHER ROUNDUP
NATIONAL WEATHER SERVICE MILWAUKEE/SULLIVAN WI
600 AM CDT WED AUG 27 2014

NOTE: "FAIR" INDICATES FEW OR NO CLOUDS BELOW 12,000 FEET WITH NO
SIGNIFICANT WEATHER AND/OR OBSTRUCTIONS TO VISIBILITY.

WIZ001-002-006>008-014>016-023>028-271200-
NORTHWEST WISCONSIN

CITY           SKY/WX    TMP DP  RH WIND       PRES   REMARKS
SUPERIOR ARPT  CLEAR     51  50  99 CALM      30.20S FOG
ASHLAND        PTCLDY    51  49  92 SW5       30.21R
HAYWARD        PTCLDY    55  53  93 CALM      30.21R
SIREN          PTCLDY    56  54  94 CALM      30.20S
RICE LAKE      PTCLDY    55  53  92 CALM      30.21S
LADYSMITH      MOCLDY    58  55  92 NW7       30.21R
EAU CLAIRE     MOCLDY    58  57  97 N3        30.18R
MENOMONIE      PTSUNNY   59  57  93 CALM      30.20R
NEW RICHMOND   CLOUDY    58  57  97 NE5       30.20R
OSCEOLA        PTCLDY    56  56 100 CALM      30.22S
$$

WIZ003>005-009-010-017-018-271200-
NORTH CENTRAL WISCONSIN

CITY           SKY/WX    TMP DP  RH WIND       PRES   REMARKS
WOODRUFF       CLOUDY    57  55  95 CALM      30.18S
RHINELANDER    MOCLDY    54  53  97 CALM      30.19R
EAGLE RIVER    MOCLDY    52  52 100 CALM      30.17R FOG
LAND O LAKES   MOCLDY    51  51 100 CALM      30.19R
PHILLIPS       MOCLDY    54  53  96 CALM      30.19R
TOMAHAWK       MOCLDY    52  51  97 CALM      30.18S
MEDFORD        FOG       52  52  99 CALM      30.18S VSB 1/2
MERRILL        CLOUDY    55  55 100 CALM      30.18S FOG
$$

WIZ029-030-035-036-043>047-271200-
CENTRAL WISCONSIN

CITY           SKY/WX    TMP DP  RH WIND       PRES   REMARKS
WAUSAU         MOCLDY    57  55  93 CALM      30.16R
MOSINEE        MOCLDY    55  55 100 CALM      30.13F
MARSHFIELD     MOCLDY    57  55  93 CALM      30.18R
STEVENS POINT  LGT RAIN  56  55  95 CALM      30.18S
WAUPACA        MOCLDY    58  56  92 CALM      30.17S
WAUTOMA        NOT AVBL
WISC RAPIDS    MOCLDY    60  54  80 CALM      30.19R
CAMP DOUGLAS   NOT AVBL
$$

WIZ011>013-019>022-031-037>040-048>050-271200-
NORTHEAST WISCONSIN

CITY           SKY/WX    TMP DP  RH WIND       PRES   REMARKS
ANTIGO         CLOUDY    55  55  99 CALM      30.18S
STURGEON BAY   CLOUDY    59  52  77 E3        30.16S
GREEN BAY      PTCLDY    58  55  90 CALM      30.15F
MANITOWOC      MOCLDY    61  57  88 CALM      30.16S
APPLETON       MOCLDY    59  52  77 N6        30.16S
CLINTONVILLE   LGT RAIN  55  54  94 CALM      30.15F
OSHKOSH        MOCLDY    63  55  75 E8        30.15S
$$

WIZ032>034-041-042-053>061-271200-
SOUTHWEST WISCONSIN

CITY           SKY/WX    TMP DP  RH WIND       PRES   REMARKS
LA CROSSE      MOCLDY    63  58  83 NW3       30.17R
SPARTA         LGT RAIN  56  56  97 CALM      30.18S
VIROQUA        CLOUDY    60  60 100 CALM      30.18S
BOSCOBEL       CLOUDY    62  59  90 CALM      30.17S
PRAIRIE DU CHI CLEAR     59  56  88 CALM      30.17S
PLATTEVILLE    FAIR      59  58  96 N3        30.18R
$$

WIZ056-057-062-063-064-067-068-271200-
SOUTH CENTRAL WISCONSIN

CITY           SKY/WX    TMP DP  RH WIND       PRES   REMARKS
BARABOO/DELLS  MOCLDY    60  54  79 CALM      30.17R
LONE ROCK      NOT AVBL
WATERTOWN      MOCLDY    59  58  98 CALM      30.15R
MADISON        PTCLDY    60  57  89 CALM      30.17R
MIDDLETON      FAIR      60  59  98 CALM      30.17R
MONROE         CLEAR     61  59  94 N3        30.17R
JANESVILLE     PTCLDY    63  59  88 CALM      30.15R
$$

WIZ051-052-058>065-066-070>072-271200-
SOUTHEAST WISCONSIN

CITY           SKY/WX    TMP DP  RH WIND       PRES   REMARKS
MILWAUKEE      MOCLDY    64  56  75 N3        30.14S
WAUKESHA       PTCLDY    61  55  82 NW3       30.16S
MILWAUKEE/TIMM MOCLDY    61  54  77 CALM      30.15S
RACINE         MOCLDY    63  59  87 N5        30.15S
BURLINGTON     MOCLDY    58  57  97 CALM      30.15R
KENOSHA        MOCLDY    63  59  87 N6        30.15R
FOND DU LAC    MOCLDY    62  57  83 NE7       30.16S
SHEBOYGAN      CLOUDY    62  59  90 N9        30.16R
WEST BEND      CLOUDY    61  55  82 CALM      30.15S
JUNEAU         CLOUDY    60  57  89 CALM      30.17R
$$

LSZ147-162-271200-
LAKE SUPERIOR

STATION/POSITION TIME  TEMP    WIND        PRES    WAVE
                       AIR SEA DIR/SP/G            HT/PER
                 (UTC) (F)     (DEG/KT/KT) (MB)    (FT/S)
W MID LAKE BUOY  0950   56 54  280/  6/  8 1021.5R   1
DEVILS ISLAND    1000   58     300/ 10/ 10 1022.3R
PORT WING        1000   55     220/  3/  4 1022.4S
SAXON HARBOR     1000   56     190/  3/  6 1022.0R
$$

LMZ867-665-643>646-271200-
LAKE MICHIGAN

STATION/POSITION TIME  TEMP    WIND        PRES    WAVE
                       AIR SEA DIR/SP/G            HT/PER
                 (UTC) (F)     (DEG/KT/KT) (MB)    (FT/S)
N MID LAKE BUOY  0950   62 65  340/  8/ 10 1020.8F   1/ 3
NORTHPORT PIER   1000   63     350/  5/  6 1021.0S
SISTER BAY       1011   60        CALM       N/A
ALGOMA LAKESHORE 0953           40/  5/  7   N/A
KEWAUNEE LAKESHO 1000   61     360/  3/  5 1020.1S
SHEBOYGAN LAKESH 1000   63 66  340/  9/ 11 1020.8S
ATWATER BUOY     1000   68     350/ 10/ 12 1021.3F
MILWAUKEE LAKESH 1000   66     340/  6/  7   N/A
S MID LAKE BUOY  0950   68 69   40/  2/  4 1019.8S   0
KENOSHA   LAKESH 1000   68     350/  5/  6 1019.6F
$$

TC  - TEMPERATURE IN CELSIUS
VSB - VISIBILITY IN STATUTE MILES
WCI - WIND CHILL INDEX
HX  - HEAT INDEX




USA.gov is the U.S. government's official web portal to all federal, state and local government web resources and services.